Kars, Turkey

2:21 PM +03 on November 24, 2017 (GMT +0300)
Kars

Weather History for LTCF - January, 2013

Change the Weather History Date:

Sunday, January 6, 2013

  Actual Average Record
Temperature  
Mean Temperature 18 °F -  
Max Temperature 23 °F 24 °F - ()
Min Temperature 14 °F 6 °F - ()
Degree Days  
Heating Degree Days 46    
Moisture  
Dew Point 19 °F    
Average Humidity 98    
Maximum Humidity 100    
Minimum Humidity 93    
Precipitation  
Precipitation 0.31 in 0.03 in - ()
Sea Level Pressure  
Sea Level Pressure 29.67 in    
Wind  
Wind Speed 0 mph ()    
Max Wind Speed 4 mph    
Max Gust Speed -    
Visibility 2.6 miles    
Events Fog , Snow    
T = Trace of Precipitation, MM = Missing Value Source: Averaged Metar Reports

Daily Weather History Graph

Daily Weather History Graph

Search for Another Location

Airport or City:

Trip Planner

Search our weather history database for the weather conditions in past years. The results will help you decide how hot, cold, wet, or windy it might be!

Date:

Astronomy

Jan. 06, 2013 Rise Set
Actual Time 6:31 AM EET 3:55 PM EET
Civil Twilight 6:00 AM EET 4:26 PM EET
Nautical Twilight 5:26 AM EET 5:00 PM EET
Astronomical Twilight 4:53 AM EET 5:33 PM EET
Moon 12:19 AM EET (1/6) 11:09 AM EET (1/6)
Length of Visible Light 10h 25m
Length of Day
9h 24m
Last Quarter, 36% of the Moon is Illuminated
Jan 6
Last Quarter
Jan 11
New
Jan 19
First Quarter
Jan 27
Full
Feb 3
Last Quarter

Hourly Weather History & Observations

Time (EET) Temp. Windchill Dew Point Humidity Pressure Visibility Wind Dir Wind Speed Gust Speed Precip Events Conditions
12:50 AM 15.8 °F - 14.0 °F 93% 29.68 in 6.2 mi Calm Calm - N/A Snow Light Snow
1:50 AM 15.8 °F - 15.8 °F 100% 29.71 in 6.2 mi Calm Calm - N/A Snow Light Snow
2:00 AM 16 °F - 16 °F 100%  in 6 mi Calm Calm - - Snow Light Snow
2:50 AM 15.8 °F - 15.8 °F 100% 29.68 in 6.2 mi Calm Calm - N/A Snow Light Snow
3:50 AM 15.8 °F - 15.8 °F 100% 29.68 in 6.2 mi West 2.3 mph - N/A   Mostly Cloudy
4:50 AM 15.8 °F - 15.8 °F 100% 29.68 in 6.2 mi NW 2.3 mph - N/A Snow Light Snow
5:50 AM 17.6 °F - 15.8 °F 93% 29.68 in 6.2 mi WNW 1.2 mph - N/A Snow Light Snow
6:50 AM 17.6 °F - 15.8 °F 93% 29.71 in 6.2 mi Calm Calm - N/A Snow Light Snow
7:50 AM 17.6 °F - 17.6 °F 100% 29.71 in 6.2 mi Calm Calm - N/A Snow Light Snow
8:00 AM 18 °F - 18 °F 100%  in 6 mi Calm Calm - - Snow Light Snow
8:50 AM 19.4 °F - 19.4 °F 100% 29.71 in 1.6 mi Calm Calm - N/A Snow Light Snow
9:50 AM 23.0 °F - 21.2 °F 93% 29.71 in 0.9 mi Calm Calm - N/A Snow Light Snow
10:50 AM 21.2 °F - 19.4 °F 93% 29.71 in 0.9 mi Calm Calm - N/A   Overcast
11:50 AM 19.4 °F - 17.6 °F 93% 29.68 in 1.2 mi Variable 1.2 mph - N/A Snow Light Snow
12:50 PM 21.2 °F 16.4 °F 19.4 °F 93% 29.65 in 0.5 mi East 3.5 mph - N/A Fog , Snow Light Snow
1:50 PM 21.2 °F - 21.2 °F 100% 29.65 in 0.2 mi NE 1.2 mph - N/A Fog , Snow Snow
2:00 PM 21 °F - 21 °F 100%  in 0 mi NE 1.2 mph - - Snow Snow
2:50 PM 21.2 °F - 21.2 °F 100% 29.65 in 0.2 mi Calm Calm - N/A Fog , Snow Light Snow
3:50 PM 21.2 °F - 19.4 °F 93% 29.65 in 0.2 mi Calm Calm - N/A Fog , Snow Light Snow
4:50 PM 21.2 °F - 21.2 °F 100% 29.65 in 0.4 mi Calm Calm - N/A Fog , Snow Light Snow
5:50 PM 21.2 °F - 21.2 °F 100% 29.65 in 0.4 mi Calm Calm - N/A Fog , Snow Light Snow
6:50 PM 21.2 °F - 21.2 °F 100% 29.65 in 0.4 mi NW 2.3 mph - N/A Fog , Snow Light Snow
7:50 PM 21.2 °F - 21.2 °F 100% 29.65 in 0.4 mi Calm Calm - N/A Fog , Snow Light Snow
8:00 PM 21 °F - 20 °F 96%  in 0 mi Calm Calm - - Snow Light Snow
8:50 PM 21.2 °F - 21.2 °F 100% 29.65 in 0.4 mi Calm Calm - N/A Fog , Snow Light Snow
9:50 PM 21.2 °F - 21.2 °F 100% 29.65 in 0.4 mi Calm Calm - N/A Fog , Snow Light Snow
11:50 PM 21.2 °F - 21.2 °F 100% 29.62 in 0.4 mi Calm Calm - N/A Fog , Snow Light Snow